Harlingen, TX

4:19 AM CDT on June 24, 2017 (GMT -0500)
Valley International

Weather History for KHRL - November, 2013

Change the Weather History Date:

Wednesday, November 13, 2013

  Actual Average Record
Temperature  
Mean Temperature 54 °F 69 °F  
Max Temperature 61 °F 81 °F 91 °F (1921)
Min Temperature 47 °F 58 °F 38 °F (1934)
Degree Days  
Heating Degree Days 11 1  
Month to date heating degree days 17 8  
Since 1 July heating degree days 17 11  
Cooling Degree Days 0 6  
Month to date cooling degree days 64 89  
Year to date cooling degree days 3961 3865  
Growing Degree Days 4 (Base 50)    
Moisture  
Dew Point 42 °F    
Average Humidity 62    
Maximum Humidity 77    
Minimum Humidity 46    
Precipitation  
Precipitation 0.00 in 0.04 in 1.32 in (2008)
Month to date precipitation 1.72 0.93  
Year to date precipitation 23.53 23.35  
Sea Level Pressure  
Sea Level Pressure 30.46 in    
Wind  
Wind Speed 15 mph (North)    
Max Wind Speed 28 mph    
Max Gust Speed 35 mph    
Visibility 10 miles    
Events      
T = Trace of Precipitation, MM = Missing Value Source: NWS Daily Summary

Daily Weather History Graph

Daily Weather History Graph

Search for Another Location

Airport or City:

Trip Planner

Search our weather history database for the weather conditions in past years. The results will help you decide how hot, cold, wet, or windy it might be!

Date:

Astronomy

Nov. 13, 2013 Rise Set
Actual Time 6:47 AM CST 5:41 PM CST
Civil Twilight 6:23 AM CST 6:05 PM CST
Nautical Twilight 5:55 AM CST 6:33 PM CST
Astronomical Twilight 5:28 AM CST 7:01 PM CST
Moon 3:11 PM CST (11/13) 3:03 AM CST (11/13)
Length of Visible Light 11h 42m
Length of Day
10h 53m
Waxing Gibbous, 85% of the Moon is Illuminated
Nov 13
Waxing Gibbous
Nov 17
Full
Nov 25
Last Quarter
Dec 2
New
Dec 9
First Quarter

Hourly Weather History & Observations

Time (CST) Temp. Dew Point Humidity Pressure Visibility Wind Dir Wind Speed Gust Speed Precip Events Conditions
12:52 AM 57.9 °F 50.0 °F 75% 30.45 in 10.0 mi North 24.2 mph 29.9 mph N/A   Overcast
1:21 AM 57.2 °F 48.2 °F 72% 30.45 in 10.0 mi North 19.6 mph 31.1 mph N/A   Overcast
1:52 AM 57.9 °F 48.9 °F 72% 30.45 in 10.0 mi North 24.2 mph 31.1 mph N/A   Overcast
2:11 AM 57.2 °F 48.2 °F 72% 30.45 in 10.0 mi North 25.3 mph 31.1 mph N/A   Mostly Cloudy
2:22 AM 57.2 °F 48.2 °F 72% 30.45 in 10.0 mi North 18.4 mph - N/A   Mostly Cloudy
2:32 AM 57.2 °F 48.2 °F 72% 30.45 in 10.0 mi North 25.3 mph 33.4 mph N/A   Mostly Cloudy
2:52 AM 55.9 °F 46.9 °F 72% 30.45 in 10.0 mi North 21.9 mph 32.2 mph N/A   Scattered Clouds
3:52 AM 55.0 °F 46.9 °F 74% 30.45 in 10.0 mi North 21.9 mph 29.9 mph N/A   Overcast
4:37 AM 55.4 °F 46.4 °F 72% 30.47 in 10.0 mi North 21.9 mph 31.1 mph N/A   Overcast
4:52 AM 55.0 °F 46.0 °F 72% 30.47 in 10.0 mi North 21.9 mph 31.1 mph N/A   Overcast
5:52 AM 54.0 °F 46.0 °F 75% 30.49 in 10.0 mi North 15.0 mph - N/A   Overcast
6:52 AM 51.1 °F 41.0 °F 68% 30.49 in 10.0 mi North 21.9 mph 29.9 mph N/A   Overcast
7:52 AM 51.1 °F 39.0 °F 63% 30.52 in 10.0 mi North 19.6 mph - N/A   Overcast
8:52 AM 50.0 °F 37.9 °F 63% 30.55 in 10.0 mi NNW 20.7 mph - N/A   Overcast
9:52 AM 51.1 °F 37.9 °F 61% 30.56 in 10.0 mi NNW 17.3 mph - N/A   Overcast
10:52 AM 53.1 °F 39.9 °F 61% 30.54 in 10.0 mi North 19.6 mph - N/A   Overcast
11:35 AM 57.2 °F 42.8 °F 59% 30.54 in 10.0 mi North 16.1 mph - N/A   Scattered Clouds
11:52 AM 59.0 °F 43.0 °F 55% 30.52 in 10.0 mi North 16.1 mph 25.3 mph N/A   Clear
12:52 PM 61.0 °F 43.0 °F 52% 30.47 in 10.0 mi North 17.3 mph - N/A   Clear
1:52 PM 57.9 °F 39.9 °F 51% 30.45 in 10.0 mi North 13.8 mph - N/A   Clear
2:52 PM 55.9 °F 39.0 °F 53% 30.44 in 10.0 mi North 12.7 mph - N/A   Clear
3:52 PM 55.9 °F 35.1 °F 45% 30.44 in 10.0 mi NNW 15.0 mph - N/A   Clear
4:52 PM 53.1 °F 34.0 °F 48% 30.43 in 10.0 mi North 13.8 mph - N/A   Clear
5:52 PM 52.0 °F 37.9 °F 59% 30.43 in 10.0 mi North 11.5 mph - N/A   Clear
6:52 PM 50.0 °F 37.9 °F 63% 30.43 in 10.0 mi NNE 6.9 mph - N/A   Partly Cloudy
7:52 PM 48.9 °F 39.0 °F 69% 30.44 in 10.0 mi North 5.8 mph - N/A   Clear
8:52 PM 48.9 °F 37.9 °F 66% 30.43 in 10.0 mi NNW 8.1 mph - N/A   Clear
9:52 PM 46.9 °F 39.0 °F 74% 30.42 in 10.0 mi NW 5.8 mph - N/A   Clear
10:52 PM 48.9 °F 37.9 °F 66% 30.40 in 10.0 mi NNW 6.9 mph - N/A   Clear
11:52 PM 46.9 °F 39.9 °F 77% 30.37 in 10.0 mi WNW 6.9 mph - N/A   Partly Cloudy